Погода в Баксане

Россия / Кабардино-Балкарская Республика     43°40′54″N   43°32′04″E
темп.,
°C
ветер,
м/с
пор.,
м/с
влажн.,
%
обл.,
%
осадки,
мм/ч
давл.,
гПа
погр.,
м
29 ноября, пн
пн2900:00+6зсз017098 0.0 101510
03:00+7з226717 0.0 101610
06:00+6ююв22705 0.0 101610
09:00+9ю1259100 0.0 101617
12:00+12юв235028 0.0 1014178
15:00+13юв35533 0.0 1013216
18:00+9ююв33684 0.0 101333
21:00+10ююв33555 0.0 101131
30 ноября, вт
вт3000:00+11ю235234 0.0 100713
03:00+12зюз2251100 0.0 100511
06:00+12з3253100 0.0 100315
09:00+11ссз6138062 0.0 1008432
12:00+11ююв3382100 0.0 1008334
15:00+11ююв4981100 0.4 1006422
18:00+9юв412854 0.1 1003270
21:00+7вюв279494 0.1 998165
1 декабря, ср
ср100:00+7сз36952 0.0 997101
03:00+8сз61291100 0.1 997572
06:00+8юз228229 0.5 99824
09:00+10зсз1262100 0.6 100041
12:00+7сз11175963 0.0 1003560
15:00+6сз7962100 0.2 1006590
18:00+5сз4563100 0.1 1010455
21:00+3юв577773 0.1 1011589
2 декабря, чт
чт200:00+2ююв378613 0.0 1012246
03:00+2ю348197 0.0 101264
06:00+2зсз22740 0.0 101413
09:00+2ссз24875 0.0 1019219
12:00+5юв447017 0.0 1020645
15:00+5юв45675 0.0 1020648
18:00+3ююв23835 0.0 102266
21:00+2ююв23861 0.0 102244
3 декабря, пт
пт300:00+1ююв22810 0.0 102221
03:00+1ююв22785 0.0 102118
06:00+1ююв117858 0.0 102110
09:00+3ююв12635 0.0 102173
12:00+6вюв2251100 0.0 1019227
15:00+7в1153100 0.0 1019172
18:00+4ююв01648 0.0 101910
21:00+3зюз0058100 0.0 101810